[[{"header":{"parameterUnit":"m.s-1","parameterCategory":1,"la1":30.2991,"la2":30.254,"lo1":-89.0895,"lo2":-89.0444,"dy":0.0017,"dx":0.0017,"nx":28,"ny":28,"refTime":"2024-03-10T03:00:00:Z","depth":0,"parameterNumber":2,"parameterNumberName":"U-component_of_WINDS"},"data":[0,0,0,0,0,0,0,0,0,0,0,0,0,0,0,0,0,0,0,0,0,0,0,0,0,0,0,0,0,0,0,0,0,0,0,0,0,0,0,0,0,0,0,0,0,0,0,0,0,0,0,0,0,0,0,0,0,0,-1.5749,-1.5749,0,-1.5674,-1.5674,-1.5673,-1.5548,-1.5546,-1.5543,-1.5541,-1.5466,-1.5466,-1.5466,0,0,0,0,0,0,0,0,0,0,0,0,0,-1.5788,-1.5788,-1.575,-1.5749,-1.5748,-1.5675,-1.5674,-1.5673,-1.5548,-1.5546,-1.5543,-1.554,-1.5466,-1.5466,-1.5467,0,0,0,0,0,0,0,0,0,0,0,0,0,-1.5749,-1.5788,-1.575,-1.5677,-1.567,-1.5675,-1.5674,-1.5672,-1.5549,-1.5545,-1.5542,-1.5539,-1.5466,-1.5466,-1.5467,-1.5537,0,0,-1.5467,-1.5467,0,0,0,0,0,0,0,0,-1.5751,-1.5747,-1.5688,-1.5682,-1.5674,-1.5617,-1.566,-1.5627,-1.555,-1.5595,-1.5541,-1.5537,-1.5519,-1.5515,-1.5508,-1.5534,-1.5531,-1.5467,-1.5467,-1.5468,-1.5468,0,0,0,0,0,0,0,-1.5754,-1.575,-1.572,-1.5688,-1.5679,-1.5649,-1.5639,-1.5653,-1.5578,-1.5591,-1.5581,-1.5574,-1.5515,-1.5509,-1.5506,-1.553,-1.5467,-1.5467,-1.5468,-1.5468,-1.5612,-1.5616,0,0,0,0,0,0,-1.5767,-1.5753,-1.5722,-1.5717,-1.5705,-1.5651,-1.564,-1.5639,-1.5577,-1.5564,-1.5577,-1.5569,-1.551,-1.5506,-1.5503,-1.5583,-1.5468,-1.5468,-1.5468,-1.5609,-1.5613,-1.5617,0,0,0,0,0,0,-1.5768,-1.5765,-1.5725,-1.5733,-1.5725,-1.5654,-1.5653,-1.5639,-1.5633,-1.5567,-1.5553,-1.5585,-1.5507,-1.5502,-1.553,-1.5579,-1.5468,-1.5468,-1.5604,-1.561,-1.5615,-1.5745,0,0,0,0,0,0,-1.577,-1.5767,-1.5792,-1.5734,-1.5725,-1.5753,-1.5656,-1.564,-1.5633,-1.5621,-1.557,-1.5558,-1.5504,-1.5531,-1.5531,-1.5577,-1.5468,-1.56,-1.5607,-1.5613,-1.5736,-1.5754,-1.5769,0,0,0,0,0,-1.5772,-1.5831,-1.5794,-1.5791,-1.5755,-1.5756,-1.5751,-1.5687,-1.5638,-1.5663,-1.5621,-1.556,-1.5574,-1.5534,-1.5533,-1.5581,-1.5596,-1.5605,-1.5613,-1.5728,-1.575,-1.5769,0,0,0,0,0,0,-1.5896,-1.5822,-1.578,-1.5822,-1.5797,-1.5735,-1.5765,-1.5712,-1.57,-1.569,-1.5611,-1.56,-1.5639,-1.5612,-1.557,-1.5648,-1.5576,-1.5584,-1.5664,-1.5684,-1.5701,-1.5707,-1.5468,0,0,0,0,0,-1.5929,-1.5935,-1.587,-1.5913,-1.5903,-1.5837,-1.5835,-1.5788,-1.5758,-1.5747,-1.5706,-1.5681,-1.568,-1.568,-1.5675,-1.5731,-1.572,-1.5764,-1.5781,-1.5795,-1.5803,-1.5834,-1.5853,-1.5644,-1.5644,-1.5644,0,0,-1.5995,-1.5956,-1.5964,-1.5938,-1.5912,-1.5922,-1.5828,-1.5842,-1.5848,-1.5749,-1.5773,-1.5743,-1.5709,-1.5753,-1.5769,-1.5732,-1.5859,-1.5805,-1.5817,-1.5818,-1.5844,-1.5864,-1.5882,-1.565,-1.5649,-1.5648,0,0,-1.6122,-1.6092,-1.6126,-1.6103,-1.6066,-1.6022,-1.6031,-1.5978,-1.5954,-1.5977,-1.5903,-1.5911,-1.591,-1.589,-1.5879,-1.6002,-1.5946,-1.6003,-1.6091,-1.6122,-1.6138,-1.6152,-1.6198,-1.6215,-1.6011,-1.6012,-1.6012,0,-1.621,-1.622,-1.615,-1.6169,-1.6161,-1.6071,-1.6106,-1.6087,-1.6051,-1.6048,-1.6006,-1.6004,-1.5975,-1.6014,-1.6044,-1.6038,-1.6047,-1.6008,-1.6141,-1.6155,-1.6167,-1.621,-1.6227,-1.6019,-1.6018,-1.6017,-1.6017,0,-1.6331,-1.634,-1.6372,-1.634,-1.6335,-1.6362,-1.6297,-1.6301,-1.6255,-1.6217,-1.6243,-1.6205,-1.6192,-1.6198,-1.6152,-1.6231,-1.6209,-1.6155,-1.6081,-1.6196,-1.6234,-1.625,-1.6029,-1.6027,-1.6024,-1.6023,0,0,-1.6533,-1.6463,-1.6476,-1.6461,-1.6415,-1.6421,-1.6446,-1.6433,-1.6438,-1.6417,-1.6436,-1.6439,-1.639,-1.6379,-1.6331,-1.6358,-1.646,-1.6301,-1.6299,-1.6333,-1.6547,-1.6588,-1.6608,-1.6423,-1.6426,-1.6428,-1.655,0,-1.6651,-1.6687,-1.6626,-1.6677,-1.6686,-1.6602,-1.6624,-1.6599,-1.6564,-1.6567,-1.6529,-1.6533,-1.6467,-1.646,-1.6482,-1.6443,-1.6502,-1.6433,-1.6442,-1.6443,-1.6454,-1.6628,-1.6671,-1.6788,-1.6565,-1.6567,-1.6569,0,-1.6792,-1.6779,-1.6831,-1.6785,-1.6786,-1.6806,-1.6791,-1.6794,-1.6766,-1.6739,-1.6728,-1.6672,-1.6694,-1.6623,-1.6653,-1.6608,-1.6608,-1.659,-1.6593,-1.6592,-1.6513,-1.6633,-1.6823,-1.6841,-1.6592,-1.659,-1.6588,0,-1.6937,-1.6931,-1.6962,-1.6952,-1.6898,-1.6915,-1.6893,-1.6861,-1.6858,-1.6845,-1.6843,-1.6833,-1.6828,-1.6823,-1.6767,-1.672,-1.6806,-1.6729,-1.6785,-1.6787,-1.6807,-1.6807,-1.7002,-1.6806,-1.6806,-1.6806,-1.6805,0,-1.7075,-1.7111,-1.7027,-1.7046,-1.7084,-1.7015,-1.7055,-1.7025,-1.6998,-1.7011,-1.6939,-1.6953,-1.6878,-1.6884,-1.6841,-1.6875,-1.6872,-1.6853,-1.6841,-1.686,-1.6862,-1.6859,-1.685,-1.681,-1.6809,-1.6808,-1.6807,0,-1.7242,-1.7187,-1.7216,-1.7163,-1.715,-1.7181,-1.7137,-1.7153,-1.7115,-1.7133,-1.7133,-1.7073,-1.7077,-1.7021,-1.7014,-1.6985,-1.7039,-1.7012,-1.7049,-1.7041,-1.7102,-1.7097,-1.7302,-1.7326,-1.7114,-1.7116,-1.7118,0,-1.7334,-1.736,-1.731,-1.7314,-1.7296,-1.7303,-1.73,-1.7234,-1.7234,-1.7205,-1.7226,-1.7225,-1.722,-1.7232,-1.7188,-1.7184,-1.7157,-1.7229,-1.7156,-1.7175,-1.716,-1.716,-1.7163,-1.7245,-1.7247,-1.7249,-1.7251,0,-1.7505,-1.7477,-1.7475,-1.7465,-1.7464,-1.7453,-1.7437,-1.7445,-1.7373,-1.7377,-1.7381,-1.7378,-1.7372,-1.7373,-1.736,-1.7339,-1.7285,-1.7275,-1.7288,-1.7308,-1.7329,-1.732,-1.7092,-1.727,-1.7268,-1.7267,-1.7266,-1.7265,-1.7638,-1.7658,-1.7627,-1.7628,-1.761,-1.7597,-1.7611,-1.7575,-1.7577,-1.7567,-1.7528,-1.754,-1.7513,-1.749,-1.7475,-1.7484,-1.7449,-1.7468,-1.7473,-1.7479,-1.7491,-1.7327,-1.7482,-1.7481,-1.748,-1.748,-1.7479,0,-1.7806,-1.7782,-1.7784,-1.7765,-1.7767,-1.7715,-1.7696,-1.7702,-1.7712,-1.7692,-1.7689,-1.7696,-1.7696,-1.7654,-1.765,-1.7666,-1.7641,-1.7667,-1.7666,-1.7663,-1.7521,-1.7511,-1.7688,-1.7688,-1.7688,-1.7688,-1.7688,-1.7688,-1.7893,-1.7925,-1.7894,-1.7917,-1.7893,-1.7904,-1.7898,-1.7887,-1.787,-1.7881,-1.7881,-1.7853,-1.7825,-1.7819,-1.7818,-1.7806,-1.7809,-1.7844,-1.7824,-1.7692,-1.7672,-1.7653,-1.7643,-1.7845,-1.7845,-1.7964,-1.7965,-1.7966]},{"header":{"parameterUnit":"m.s-1","parameterCategory":1,"la1":30.2991,"la2":30.254,"lo1":-89.0895,"lo2":-89.0444,"dy":0.0017,"dx":0.0017,"nx":28,"ny":28,"refTime":"2024-03-10T03:00:00:Z","depth":0,"parameterNumber":3,"parameterNumberName":"V-component_of_WINDS"},"data":[0,0,0,0,0,0,0,0,0,0,0,0,0,0,0,0,0,0,0,0,0,0,0,0,0,0,0,0,0,0,0,0,0,0,0,0,0,0,0,0,0,0,0,0,0,0,0,0,0,0,0,0,0,0,0,0,0,0,0.8577,0.8577,0,0.853,0.8529,0.8529,0.8535,0.8536,0.8536,0.8537,0.8485,0.8483,0.8481,0,0,0,0,0,0,0,0,0,0,0,0,0,0.867,0.8668,0.8577,0.8577,0.8576,0.853,0.8529,0.8529,0.8535,0.8536,0.8537,0.8537,0.8485,0.8483,0.848,0,0,0,0,0,0,0,0,0,0,0,0,0,0.8627,0.8668,0.8577,0.8574,0.8573,0.853,0.8529,0.8528,0.8534,0.8536,0.8537,0.8538,0.8486,0.8483,0.848,0.8437,0,0,0.847,0.8469,0,0,0,0,0,0,0,0,0.8629,0.8623,0.8575,0.8574,0.8573,0.854,0.8543,0.8498,0.8534,0.8549,0.8537,0.8538,0.8502,0.8497,0.8486,0.8434,0.8432,0.847,0.8468,0.8467,0.8466,0,0,0,0,0,0,0,0.8632,0.8625,0.8558,0.8574,0.8573,0.8573,0.8568,0.8534,0.8519,0.8548,0.8548,0.8543,0.8501,0.8489,0.8485,0.8431,0.847,0.8467,0.8465,0.8464,0.8342,0.834,0,0,0,0,0,0,0.8637,0.8628,0.856,0.8557,0.8605,0.8571,0.8565,0.8549,0.852,0.8516,0.8542,0.8543,0.8494,0.8488,0.8483,0.8429,0.8467,0.8464,0.8462,0.8343,0.8341,0.834,0,0,0,0,0,0,0.8638,0.863,0.8562,0.8592,0.8584,0.8568,0.8549,0.8547,0.8535,0.8515,0.8512,0.8532,0.8494,0.8487,0.8448,0.8428,0.8462,0.8459,0.8345,0.8342,0.8341,0.8323,0,0,0,0,0,0,0.8641,0.8631,0.8615,0.8592,0.8582,0.8529,0.8548,0.8546,0.853,0.8531,0.8505,0.8502,0.8495,0.8453,0.8445,0.8424,0.8457,0.8346,0.8344,0.8341,0.8325,0.8321,0.8317,0,0,0,0,0,0.8644,0.8611,0.8614,0.8606,0.8562,0.8528,0.8522,0.8516,0.8528,0.8511,0.8499,0.8502,0.8432,0.8449,0.844,0.8418,0.8347,0.8344,0.8341,0.8327,0.8321,0.8317,0,0,0,0,0,0,0.8631,0.8608,0.8611,0.857,0.8551,0.8529,0.8507,0.851,0.8486,0.8488,0.8481,0.8475,0.8435,0.8423,0.8442,0.8374,0.8391,0.8386,0.8383,0.8378,0.8373,0.8376,0.8454,0,0,0,0,0,0.8623,0.8598,0.858,0.8545,0.8535,0.8523,0.8508,0.8505,0.8485,0.8476,0.8461,0.844,0.8413,0.8395,0.8369,0.8324,0.8318,0.8305,0.83,0.8297,0.8292,0.8266,0.826,0.833,0.833,0.833,0,0,0.8607,0.8591,0.8576,0.8542,0.8527,0.85,0.8516,0.8487,0.8467,0.8471,0.8434,0.8422,0.8398,0.8356,0.8336,0.8344,0.8271,0.8293,0.829,0.8287,0.8263,0.8256,0.825,0.8328,0.8328,0.8329,0,0,0.8562,0.8549,0.8518,0.8503,0.8481,0.8473,0.8466,0.8444,0.8436,0.8399,0.8402,0.8377,0.8331,0.8314,0.8299,0.825,0.8252,0.8242,0.8218,0.8193,0.8188,0.8183,0.8164,0.8157,0.8237,0.8237,0.8237,0,0.8544,0.8505,0.8502,0.8473,0.8457,0.8462,0.843,0.8415,0.8385,0.8374,0.8384,0.8326,0.831,0.8264,0.8252,0.8241,0.8231,0.8243,0.8189,0.8184,0.8179,0.8161,0.8154,0.8236,0.8236,0.8236,0.8237,0,0.8483,0.8456,0.8434,0.8406,0.8388,0.8358,0.8349,0.8331,0.8331,0.8322,0.8283,0.8265,0.8235,0.8224,0.8223,0.8177,0.8183,0.8191,0.8208,0.8171,0.8154,0.8147,0.8234,0.8235,0.8235,0.8236,0,0,0.8427,0.8399,0.839,0.8377,0.8354,0.8332,0.8302,0.8274,0.8259,0.8238,0.8212,0.8174,0.8181,0.8164,0.8161,0.814,0.81,0.8151,0.815,0.814,0.8048,0.804,0.8032,0.8103,0.8102,0.8101,0.8049,0,0.8379,0.8326,0.8323,0.8275,0.8249,0.8254,0.8228,0.821,0.8201,0.8177,0.8168,0.814,0.8153,0.8143,0.8122,0.811,0.8081,0.8114,0.8076,0.8075,0.808,0.8023,0.8015,0.7968,0.8043,0.8042,0.8041,0,0.8316,0.8294,0.8244,0.8224,0.8213,0.819,0.8164,0.8142,0.8121,0.8117,0.8099,0.8099,0.8067,0.8086,0.8041,0.8063,0.8048,0.804,0.8038,0.8032,0.8054,0.8014,0.7952,0.7944,0.803,0.8031,0.8032,0,0.8277,0.8236,0.8201,0.819,0.8166,0.8149,0.8139,0.812,0.8103,0.8081,0.807,0.8044,0.8029,0.8008,0.8001,0.8016,0.7956,0.7975,0.7949,0.7949,0.7934,0.7935,0.7867,0.7928,0.7928,0.7928,0.7928,0,0.8223,0.8192,0.8183,0.8161,0.8126,0.8123,0.8088,0.8078,0.8061,0.8036,0.8039,0.8016,0.8009,0.7984,0.7978,0.7941,0.7934,0.7928,0.7927,0.7927,0.7927,0.7915,0.7917,0.7926,0.7927,0.7927,0.7927,0,0.8173,0.8167,0.8128,0.811,0.8104,0.8079,0.8062,0.8041,0.8033,0.8002,0.7994,0.7982,0.7953,0.7944,0.7909,0.7905,0.7861,0.7863,0.7868,0.7867,0.7841,0.7843,0.7761,0.7749,0.782,0.782,0.7819,0,0.8138,0.8114,0.8093,0.8078,0.8066,0.8041,0.8025,0.8021,0.8004,0.7979,0.796,0.7932,0.7909,0.7862,0.7849,0.7822,0.7822,0.7795,0.7818,0.7819,0.7819,0.782,0.7817,0.779,0.779,0.7789,0.7788,0,0.8075,0.8074,0.8051,0.8026,0.8007,0.7988,0.7969,0.7956,0.7949,0.793,0.79,0.7883,0.7847,0.7818,0.7791,0.7779,0.7782,0.7782,0.7774,0.7773,0.7776,0.7772,0.7854,0.7783,0.7784,0.7784,0.7784,0.7785,0.803,0.8009,0.7991,0.7965,0.7951,0.7934,0.7913,0.7903,0.7879,0.7851,0.785,0.7818,0.7799,0.7763,0.7749,0.7723,0.7731,0.772,0.7717,0.7714,0.7711,0.7782,0.7719,0.7719,0.7719,0.7719,0.7719,0,0.7966,0.7955,0.7932,0.7906,0.7886,0.7893,0.7873,0.7855,0.7827,0.7809,0.7787,0.7753,0.7726,0.7711,0.7684,0.7666,0.7666,0.7658,0.7658,0.7655,0.7706,0.7715,0.7658,0.7658,0.7658,0.7658,0.7658,0.7658,0.793,0.7894,0.7891,0.7848,0.7837,0.7807,0.7794,0.7778,0.7764,0.7726,0.7704,0.7696,0.7679,0.765,0.7625,0.7622,0.761,0.7601,0.7598,0.7646,0.7652,0.7658,0.7666,0.7599,0.7599,0.7549,0.7548,0.7548]}]]